Sand Point, AK

8:33 PM AKDT on March 22, 2017 (GMT -0800)
Sand Point

Weather History for PASD - September, 2013

Change the Weather History Date:

Thursday, September 5, 2013

  Actual Average Record
Temperature  
Mean Temperature 53 °F -  
Max Temperature 55 °F 52 °F 64 °F (1984)
Min Temperature 51 °F 46 °F 32 °F (1982)
Degree Days  
Heating Degree Days 12    
Growing Degree Days 3 (Base 50)    
Moisture  
Dew Point 51 °F    
Average Humidity 95    
Maximum Humidity 100    
Minimum Humidity 88    
Precipitation  
Precipitation 0.00 in - - ()
Sea Level Pressure  
Sea Level Pressure 29.76 in    
Wind  
Wind Speed 11 mph (SSE)    
Max Wind Speed 16 mph    
Max Gust Speed -    
Visibility 10 miles    
Events      
Averages and records for this station are not official NWS values.
T = Trace of Precipitation, MM = Missing Value Source: NWS Daily Summary

Daily Weather History Graph

Daily Weather History Graph

Search for Another Location

Airport or City:

Trip Planner

Search our weather history database for the weather conditions in past years. The results will help you decide how hot, cold, wet, or windy it might be!

Date:

Astronomy

Sep. 05, 2013 Rise Set
Actual Time 7:56 AM AKDT 9:23 PM AKDT
Civil Twilight 7:18 AM AKDT 10:01 PM AKDT
Nautical Twilight 6:31 AM AKDT 10:48 PM AKDT
Astronomical Twilight 5:38 AM AKDT 11:40 PM AKDT
Moon 8:32 AM AKDT (9/5) 9:03 PM AKDT (9/5)
Length of Visible Light 14h 43m
Length of Day
13h 27m
New Moon, 0% of the Moon is Illuminated
Sep 5
New Moon
Sep 12
First Quarter
Sep 19
Full
Sep 26
Last Quarter
Oct 4
New

Hourly Weather History & Observations

Time (AKDT) Temp. Dew Point Humidity Pressure Visibility Wind Dir Wind Speed Gust Speed Precip Events Conditions
12:16 AM 51.8 °F 48.2 °F 88% 29.72 in 10.0 mi South 11.5 mph - N/A   Overcast
12:36 AM 51.8 °F 48.2 °F 88% 29.72 in 10.0 mi South 13.8 mph - N/A   Overcast
12:56 AM 51.8 °F 50.0 °F 94% 29.72 in 10.0 mi South 11.5 mph - N/A   Overcast
1:16 AM 51.8 °F 50.0 °F 94% 29.72 in 10.0 mi South 12.7 mph - N/A   Overcast
1:36 AM 51.8 °F 50.0 °F 94% 29.73 in 10.0 mi South 12.7 mph - N/A   Overcast
1:56 AM 51.8 °F 50.0 °F 94% 29.73 in 10.0 mi South 15.0 mph - N/A   Overcast
2:16 AM 51.8 °F 50.0 °F 94% 29.73 in 10.0 mi South 12.7 mph - N/A   Mostly Cloudy
2:36 AM 51.8 °F 51.8 °F 100% 29.73 in 10.0 mi South 15.0 mph - N/A   Overcast
2:56 AM 51.8 °F 50.0 °F 94% 29.73 in 10.0 mi South 15.0 mph - N/A   Overcast
3:16 AM 51.8 °F 50.0 °F 94% 29.73 in 9.0 mi South 13.8 mph - N/A   Overcast
3:36 AM 51.8 °F 51.8 °F 100% 29.73 in 6.0 mi South 15.0 mph - N/A   Overcast
3:56 AM 51.8 °F 51.8 °F 100% 29.73 in 10.0 mi South 16.1 mph - N/A   Mostly Cloudy
4:16 AM 51.8 °F 51.8 °F 100% 29.73 in 10.0 mi South 15.0 mph - N/A   Overcast
4:36 AM 51.8 °F 51.8 °F 100% 29.73 in 8.0 mi South 13.8 mph - N/A   Overcast
4:56 AM 51.8 °F 51.8 °F 100% 29.73 in 10.0 mi South 16.1 mph - N/A   Overcast
5:16 AM 51.8 °F 51.8 °F 100% 29.73 in 10.0 mi South 16.1 mph - N/A   Overcast
5:36 AM 51.8 °F 51.8 °F 100% 29.73 in 10.0 mi South 13.8 mph - N/A   Mostly Cloudy
5:56 AM 51.8 °F 51.8 °F 100% 29.74 in 10.0 mi South 16.1 mph - N/A   Mostly Cloudy
6:16 AM 51.8 °F 51.8 °F 100% 29.73 in 10.0 mi South 13.8 mph - N/A   Overcast
6:36 AM 51.8 °F 51.8 °F 100% 29.73 in 10.0 mi South 13.8 mph - N/A   Overcast
6:56 AM 51.8 °F 51.8 °F 100% 29.73 in 10.0 mi South 13.8 mph - N/A   Overcast
7:16 AM 51.8 °F 51.8 °F 100% 29.74 in 10.0 mi South 13.8 mph - N/A   Overcast
7:36 AM 51.8 °F 51.8 °F 100% 29.74 in 10.0 mi South 12.7 mph - N/A   Overcast
7:56 AM 51.8 °F 51.8 °F 100% 29.75 in 10.0 mi South 12.7 mph - N/A   Overcast
8:16 AM 51.8 °F 51.8 °F 100% 29.75 in 9.0 mi South 13.8 mph - N/A   Overcast
8:36 AM 51.8 °F 50.0 °F 94% 29.76 in 10.0 mi South 12.7 mph - N/A   Mostly Cloudy
8:56 AM 51.8 °F 50.0 °F 94% 29.76 in 10.0 mi South 9.2 mph - N/A   Mostly Cloudy
9:16 AM 51.8 °F 50.0 °F 94% 29.76 in 9.0 mi South 11.5 mph - N/A   Mostly Cloudy
9:36 AM 51.8 °F 51.8 °F 100% 29.77 in 10.0 mi South 10.4 mph - N/A   Mostly Cloudy
9:56 AM 51.8 °F 51.8 °F 100% 29.77 in 10.0 mi South 15.0 mph - N/A   Overcast
10:16 AM 53.6 °F 51.8 °F 94% 29.77 in 10.0 mi South 13.8 mph - N/A   Mostly Cloudy
10:36 AM 53.6 °F 51.8 °F 94% 29.78 in 10.0 mi SSE 12.7 mph - N/A   Mostly Cloudy
10:56 AM 53.6 °F 51.8 °F 94% 29.78 in 10.0 mi SSE 11.5 mph - N/A   Mostly Cloudy
11:16 AM 53.6 °F 51.8 °F 94% 29.78 in 10.0 mi SSE 11.5 mph - N/A   Mostly Cloudy
11:36 AM 53.6 °F 51.8 °F 94% 29.79 in 10.0 mi SSE 9.2 mph - N/A   Mostly Cloudy
11:56 AM 51.8 °F 50.0 °F 94% 29.79 in 10.0 mi SSE 12.7 mph - N/A   Overcast
12:16 PM 53.6 °F 51.8 °F 94% 29.79 in 10.0 mi SSE 10.4 mph - N/A   Overcast
12:36 PM 53.6 °F 51.8 °F 94% 29.80 in 10.0 mi SSE 9.2 mph - N/A   Overcast
12:56 PM 53.6 °F 51.8 °F 94% 29.80 in 9.0 mi South 12.7 mph - N/A   Overcast
1:16 PM 53.6 °F 51.8 °F 94% 29.80 in 10.0 mi SSE 11.5 mph - N/A   Overcast
1:36 PM 53.6 °F 51.8 °F 94% 29.80 in 10.0 mi South 12.7 mph - N/A   Overcast
1:56 PM 53.6 °F 53.6 °F 100% 29.81 in 10.0 mi SSE 11.5 mph - N/A   Overcast
2:16 PM 53.6 °F 51.8 °F 94% 29.80 in 10.0 mi SSE 12.7 mph - N/A   Overcast
2:36 PM 53.6 °F 51.8 °F 94% 29.80 in 10.0 mi SSE 11.5 mph - N/A   Overcast
2:56 PM 53.6 °F 51.8 °F 94% 29.80 in 10.0 mi SSE 10.4 mph - N/A   Overcast
3:16 PM 53.6 °F 51.8 °F 94% 29.80 in 10.0 mi SSE 9.2 mph - N/A   Overcast
3:36 PM 55.4 °F 51.8 °F 88% 29.80 in 10.0 mi SSE 9.2 mph - N/A   Overcast
3:56 PM 55.4 °F 51.8 °F 88% 29.80 in 10.0 mi SSE 8.1 mph - N/A   Overcast
4:16 PM 55.4 °F 51.8 °F 88% 29.79 in 10.0 mi SSE 6.9 mph - N/A   Overcast
4:36 PM 55.4 °F 51.8 °F 88% 29.79 in 10.0 mi SSE 6.9 mph - N/A   Overcast
4:56 PM 53.6 °F 51.8 °F 94% 29.79 in 10.0 mi SSE 4.6 mph - N/A   Overcast
5:16 PM 53.6 °F 51.8 °F 94% 29.79 in 10.0 mi South 5.8 mph - N/A   Mostly Cloudy
5:36 PM 53.6 °F 51.8 °F 94% 29.79 in 10.0 mi SSE 4.6 mph - N/A   Mostly Cloudy
5:56 PM 53.6 °F 51.8 °F 94% 29.78 in 10.0 mi SE 3.5 mph - N/A   Mostly Cloudy
6:16 PM 53.6 °F 51.8 °F 94% 29.78 in 10.0 mi SSE 3.5 mph - N/A   Mostly Cloudy
6:36 PM 53.6 °F 53.6 °F 100% 29.78 in 10.0 mi Calm Calm - N/A   Mostly Cloudy
6:56 PM 53.6 °F 51.8 °F 94% 29.78 in 10.0 mi Calm Calm - N/A   Mostly Cloudy
7:16 PM 55.4 °F 51.8 °F 88% 29.78 in 10.0 mi Calm Calm - N/A   Mostly Cloudy
7:36 PM 53.6 °F 51.8 °F 94% 29.77 in 10.0 mi Calm Calm - N/A   Mostly Cloudy
7:56 PM 53.6 °F 51.8 °F 94% 29.77 in 10.0 mi SSE 3.5 mph - N/A   Mostly Cloudy
8:16 PM 53.6 °F 51.8 °F 94% 29.77 in 10.0 mi Calm Calm - N/A   Overcast
8:36 PM 53.6 °F 51.8 °F 94% 29.77 in 10.0 mi Calm Calm - N/A   Overcast
8:56 PM 53.6 °F 51.8 °F 94% 29.77 in 10.0 mi Calm Calm - N/A   Overcast
9:16 PM 53.6 °F 51.8 °F 94% 29.77 in 10.0 mi Calm Calm - N/A   Overcast
9:36 PM 53.6 °F 50.0 °F 88% 29.76 in 10.0 mi Calm Calm - N/A   Overcast
9:56 PM 51.8 °F 50.0 °F 94% 29.76 in 9.0 mi Calm Calm - N/A   Overcast
10:16 PM 51.8 °F 50.0 °F 94% 29.75 in 10.0 mi NE 3.5 mph - N/A   Overcast
10:36 PM 51.8 °F 51.8 °F 100% 29.75 in 10.0 mi Calm Calm - N/A   Mostly Cloudy
10:56 PM 51.8 °F 51.8 °F 100% 29.75 in 10.0 mi Calm Calm - N/A   Mostly Cloudy
11:16 PM 51.8 °F 51.8 °F 100% 29.75 in 10.0 mi NNE 3.5 mph - N/A   Overcast
11:36 PM 51.8 °F 50.0 °F 94% 29.75 in 10.0 mi NNE 4.6 mph - N/A   Overcast
11:56 PM 51.8 °F 50.0 °F 94% 29.75 in 10.0 mi NE 3.5 mph - N/A   Overcast